FW8906 Weather Reports


Display with metric or nautical units.
time (UTC)temp
F
wind
direction
speed
MPH
gust
MPH
rain 1hr
in
rain 24hr
in
rain mn
in
humidity
%
barometer
mb
20260507002556 58 208 2.0 4.0 0.00 0.00 0.00 80 1021.1
20260507002040 58 239 1.0 6.0 0.00 0.00 0.00 79 1021.1
20260507001537 59 296 2.0 5.0 0.00 0.00 0.00 78 1021.0
20260507001031 59 200 3.0 6.0 0.00 0.00 0.00 79 1020.9
20260507000533 59 269 2.0 6.0 0.00 0.00 0.00 80 1020.9
20260507000118 58 303 3.0 8.0 0.00 0.00 0.00 81 1021.0
20260506235526 58 288 5.0 8.0 0.00 0.00 0.00 80 1021.1
20260506235031 58 301 3.0 6.0 0.00 0.00 0.00 80 1021.0
20260506234537 58 276 5.0 8.0 0.00 0.00 0.00 78 1021.1
20260506234037 59 219 6.0 8.0 0.00 0.00 0.00 78 1021.1
20260506233533 59 222 5.0 11.0 0.00 0.00 0.00 80 1021.1
20260506233038 59 253 6.0 11.0 0.00 0.00 0.00 81 1021.2
20260506232541 59 281 6.0 9.0 0.00 0.00 0.00 80 1021.1
20260506232042 58 266 5.0 8.0 0.00 0.00 0.00 81 1021.1
20260506231543 58 216 5.0 8.0 0.00 0.00 0.00 81 1021.1
20260506231040 58 282 5.0 10.0 0.00 0.00 0.00 81 1021.1
20260506230539 59 289 7.0 10.0 0.00 0.00 0.00 81 1021.1
20260506230049 59 296 4.0 7.0 0.00 0.00 0.00 81 1021.2
20260506225529 59 238 4.0 6.0 0.00 0.00 0.00 78 1021.2
20260506225034 59 204 0.0 8.0 0.00 0.00 0.00 79 1021.2
20260506224536 59 281 2.0 8.0 0.00 0.00 0.00 78 1021.2
20260506224041 59 239 2.0 6.0 0.00 0.00 0.00 79 1021.2
20260506223532 59 270 1.0 5.0 0.00 0.00 0.00 81 1021.2
20260506223053 58 238 2.0 6.0 0.00 0.00 0.00 80 1021.1
20260506222526 58 221 3.0 8.0 0.00 0.00 0.00 81 1021.2
20260506222051 58 234 3.0 8.0 0.00 0.00 0.00 81 1021.2
20260506221541 59 269 3.0 6.0 0.00 0.00 0.00 81 1021.2
20260506221045 58 167 2.0 7.0 0.00 0.00 0.00 81 1021.2
20260506220552 59 290 3.0 7.0 0.00 0.00 0.00 80 1021.2
20260506220105 59 139 1.0 6.0 0.00 0.00 0.00 81 1021.2
20260506215539 58 251 1.0 6.0 0.00 0.00 0.00 83 1021.2
20260506215052 58 252 3.0 7.0 0.00 0.00 0.00 83 1021.2
20260506214545 58 247 4.0 7.0 0.00 0.00 0.00 82 1021.2
20260506214046 58 235 4.0 7.0 0.00 0.00 0.00 80 1021.3
20260506213541 58 283 2.0 4.0 0.00 0.00 0.00 80 1021.3
20260506213040 58 67 3.0 7.0 0.00 0.00 0.00 80 1021.3
20260506212524 58 278 1.0 11.0 0.00 0.00 0.00 81 1021.3
20260506212049 58 300 1.0 11.0 0.00 0.00 0.00 81 1021.3
20260506211544 58 259 4.0 7.0 0.00 0.00 0.00 84 1021.2
20260506211039 57 262 3.0 6.0 0.00 0.00 0.00 85 1021.1
20260506210548 57 248 3.0 6.0 0.00 0.00 0.00 84 1021.2
20260506205537 57 278 3.0 6.0 0.00 0.00 0.00 85 1021.3
20260506205036 57 264 3.0 8.0 0.00 0.00 0.00 84 1021.3
20260506204538 57 248 3.0 8.0 0.00 0.00 0.00 84 1021.2
20260506204041 57 283 3.0 4.0 0.00 0.00 0.00 83 1021.2
20260506203543 57 140 0.0 7.0 0.00 0.00 0.00 83 1021.3
20260506203036 57 282 3.0 7.0 0.00 0.00 0.00 83 1021.3
20260506202539 57 271 0.0 6.0 0.00 0.00 0.00 84 1021.2
20260506202059 57 260 2.0 6.0 0.00 0.00 0.00 84 1021.2
20260506201618 57 240 1.0 6.0 0.00 0.00 0.00 84 1021.1
20260506201029 57 238 1.0 7.0 0.00 0.00 0.00 86 1021.2
20260506200525 57 7 2.0 7.0 0.00 0.00 0.00 86 1021.1
20260506200101 57 248 4.0 7.0 0.00 0.00 0.00 87 1021.2
20260506195542 56 94 1.0 4.0 0.00 0.00 0.00 91 1021.1
20260506195026 55 295 1.0 6.0 0.00 0.00 0.00 91 1021.0
20260506194545 54 304 2.0 6.0 0.00 0.00 0.00 91 1021.0
20260506194036 54 233 3.0 6.0 0.00 0.00 0.00 91 1021.1
20260506193611 54 293 4.0 6.0 0.00 0.00 0.00 91 1021.0
20260506193111 54 236 3.0 6.0 0.00 0.00 0.00 91 1021.0
20260506192613 53 292 3.0 7.0 0.00 0.00 0.00 90 1021.1
20260506192050 54 268 2.0 6.0 0.00 0.00 0.00 89 1021.0
20260506191541 55 344 2.0 6.0 0.00 0.00 0.00 87 1020.9
20260506191036 56 293 2.0 5.0 0.00 0.00 0.00 85 1020.9
20260506190545 57 243 3.0 5.0 0.00 0.00 0.00 84 1020.7
20260506190051 57 53 2.0 6.0 0.00 0.00 0.00 85 1020.8
20260506185539 57 120 2.0 6.0 0.00 0.00 0.00 85 1020.8
20260506185044 57 236 2.0 7.0 0.00 0.00 0.00 85 1020.8
20260506184539 57 254 3.0 7.0 0.00 0.00 0.00 85 1020.8
20260506184039 57 70 2.0 5.0 0.00 0.00 0.00 85 1020.7
20260506183545 56 58 2.0 7.0 0.00 0.00 0.00 86 1020.7
20260506183110 56 222 2.0 7.0 0.00 0.00 0.00 86 1020.7
20260506182541 56 236 1.0 6.0 0.00 0.00 0.00 86 1020.8
20260506182046 56 281 2.0 6.0 0.00 0.00 0.00 87 1020.8
20260506181549 56 219 4.0 9.0 0.00 0.00 0.00 86 1020.7
20260506181027 56 273 3.0 8.0 0.00 0.00 0.00 86 1020.7
20260506180526 56 181 3.0 6.0 0.00 0.00 0.00 86 1020.7
20260506180100 56 255 3.0 7.0 0.00 0.00 0.00 85 1020.6
20260506175544 56 357 2.0 7.0 0.00 0.00 0.00 86 1020.6
20260506175044 57 273 3.0 11.0 0.00 0.00 0.00 86 1020.5
20260506174550 57 249 3.0 11.0 0.00 0.00 0.00 85 1020.5
20260506174040 57 45 2.0 8.0 0.00 0.00 0.00 86 1020.5
20260506173525 56 294 3.0 11.0 0.00 0.00 0.00 87 1020.4
20260506173032 56 278 3.0 11.0 0.00 0.00 0.00 86 1020.4
20260506172526 56 224 4.0 8.0 0.00 0.00 0.00 85 1020.4
20260506172031 56 204 2.0 6.0 0.00 0.00 0.00 85 1020.4
20260506171534 56 75 3.0 11.0 0.00 0.00 0.00 85 1020.3
20260506171038 57 232 2.0 11.0 0.00 0.00 0.00 85 1020.0
20260506170532 57 29 3.0 6.0 0.00 0.00 0.00 86 1020.1
20260506170043 57 262 2.0 6.0 0.00 0.00 0.00 86 1020.1
20260506165553 56 67 2.0 6.0 0.00 0.00 0.00 87 1020.2
20260506165046 56 10 3.0 6.0 0.00 0.00 0.00 87 1020.3
20260506164537 56 283 2.0 7.0 0.00 0.00 0.00 87 1020.3
20260506164039 56 120 1.0 8.0 0.00 0.00 0.00 87 1020.3
20260506163543 56 108 1.0 8.0 0.00 0.00 0.00 88 1020.3
20260506163041 56 121 2.0 6.0 0.00 0.00 0.00 88 1020.3
20260506162612 55 48 1.0 3.0 0.00 0.00 0.00 89 1020.4
20260506162108 55 277 1.0 3.0 0.00 0.00 0.00 90 1020.4
20260506161531 55 277 0.0 6.0 0.00 0.00 0.00 90 1020.4
20260506161043 55 168 2.0 6.0 0.00 0.00 0.00 90 1020.6
20260506160536 55 292 3.0 6.0 0.00 0.00 0.00 90 1020.7
20260506160047 55 266 1.0 4.0 0.00 0.00 0.00 91 1020.5
20260506155545 54 91 2.0 5.0 0.00 0.00 0.00 91 1020.3
20260506155048 54 63 1.0 7.0 0.00 0.00 0.00 92 1020.3
20260506154531 54 191 1.0 5.0 0.00 0.00 0.00 93 1020.4
20260506154039 54 251 2.0 8.0 0.00 0.00 0.00 93 1020.4
20260506153604 54 165 3.0 8.0 0.00 0.00 0.00 94 1020.4
20260506153044 54 259 1.0 5.0 0.00 0.00 0.00 94 1020.2
20260506152528 54 249 2.0 6.0 0.00 0.00 0.00 95 1020.0
20260506152051 53 115 2.0 6.0 0.00 0.00 0.00 95 1019.9
20260506151542 53 104 1.0 3.0 0.00 0.00 0.00 96 1019.8
20260506151044 53 32 1.0 3.0 0.00 0.00 0.00 96 1019.7
20260506150539 53 179 1.0 6.0 0.00 0.00 0.00 96 1019.7
20260506150050 53 56 1.0 6.0 0.00 0.00 0.00 96 1019.7
20260506145540 53 101 2.0 4.0 0.00 0.00 0.00 96 1019.6
20260506145031 52 101 1.0 3.0 0.00 0.00 0.00 96 1019.8
20260506144537 52 286 0.0 3.0 0.00 0.00 0.00 95 1019.9
20260506144040 52 290 0.0 1.0 0.00 0.00 0.00 95 1019.9
20260506143541 52 276 0.0 3.0 0.00 0.00 0.00 95 1020.2
20260506143046 52 273 0.0 4.0 0.00 0.00 0.00 95 1020.2
20260506142545 52 290 3.0 4.0 0.00 0.00 0.00 95 1020.3
20260506142051 52 285 1.0 2.0 0.00 0.00 0.00 95 1020.0
20260506141524 52 304 0.0 1.0 0.00 0.00 0.00 95 1019.8
20260506141029 52 349 0.0 1.0 0.00 0.00 0.00 95 1019.5
20260506140530 52 349 0.0 1.0 0.00 0.00 0.00 95 1019.6
20260506140106 52 349 0.0 1.0 0.00 0.00 0.00 95 1019.7
20260506135536 52 349 0.0 1.0 0.00 0.00 0.00 95 1019.6
20260506135100 52 349 0.0 0.0 0.00 0.00 0.00 95 1019.5
20260506134526 52 349 0.0 0.0 0.00 0.00 0.00 95 1019.6
20260506134046 52 349 0.0 0.0 0.00 0.00 0.00 95 1019.5
20260506133538 51 349 0.0 1.0 0.00 0.00 0.00 95 1019.5
20260506133037 51 349 0.0 1.0 0.00 0.00 0.00 95 1019.5
20260506132539 51 349 0.0 1.0 0.00 0.00 0.00 95 1019.4
20260506132041 51 332 0.0 1.0 0.00 0.00 0.00 95 1019.4
20260506131538 51 323 0.0 1.0 0.00 0.00 0.00 95 1019.5
20260506131037 51 323 0.0 0.0 0.00 0.00 0.00 95 1019.4
20260506130532 51 323 0.0 1.0 0.00 0.00 0.00 95 1019.6
20260506130043 51 323 0.0 1.0 0.00 0.00 0.00 95 1019.6
20260506125538 51 323 0.0 1.0 0.00 0.00 0.00 95 1019.4
20260506125103 51 323 0.0 1.0 0.00 0.00 0.00 95 1019.5
20260506124536 51 323 0.0 1.0 0.00 0.00 0.00 95 1019.5
20260506124112 51 353 0.0 1.0 0.00 0.00 0.00 95 1019.4
20260506123526 51 44 0.0 0.0 0.00 0.00 0.00 95 1019.4
20260506123032 51 44 0.0 0.0 0.00 0.00 0.00 95 1019.3
20260506122540 51 44 0.0 1.0 0.00 0.00 0.00 95 1019.1
20260506122026 51 44 0.0 1.0 0.00 0.00 0.00 95 1019.2
20260506121531 51 44 0.0 1.0 0.00 0.00 0.00 95 1019.2
20260506121030 51 44 1.0 1.0 0.00 0.00 0.00 95 1019.2
20260506120533 51 272 0.0 0.0 0.00 0.00 0.00 96 1019.2
20260506120045 51 272 0.0 0.0 0.00 0.00 0.00 96 1019.1
20260506115550 51 272 0.0 0.0 0.00 0.00 0.00 96 1019.1
20260506115036 51 272 0.0 0.0 0.00 0.00 0.00 96 1019.2
20260506114602 51 272 0.0 0.0 0.00 0.00 0.00 96 1019.4
20260506114044 51 266 0.0 0.0 0.00 0.00 0.00 96 1019.3
20260506113542 51 266 0.0 0.0 0.00 0.00 0.00 96 1019.3
20260506113030 50 266 0.0 0.0 0.00 0.00 0.00 96 1019.2
20260506112538 50 266 0.0 0.0 0.00 0.00 0.00 96 1018.9
20260506112055 50 266 0.0 0.0 0.00 0.00 0.00 96 1019.0
20260506111529 50 266 0.0 0.0 0.00 0.00 0.00 96 1018.9
20260506111104 50 266 0.0 0.0 0.00 0.00 0.00 96 1018.8
20260506110608 50 266 0.0 0.0 0.00 0.00 0.00 96 1018.7
20260506110101 50 266 0.0 0.0 0.00 0.00 0.00 96 1018.8
20260506105612 50 266 0.0 0.0 0.00 0.00 0.00 96 1018.7
20260506105031 50 266 0.0 1.0 0.00 0.00 0.00 95 1018.6
20260506104550 50 266 0.0 1.0 0.00 0.00 0.00 95 1018.5
20260506104048 50 266 0.0 0.0 0.00 0.00 0.00 96 1018.4
20260506103543 50 266 0.0 0.0 0.00 0.00 0.00 96 1018.4
20260506103027 49 266 0.0 0.0 0.00 0.00 0.00 96 1018.4
20260506102534 49 266 0.0 0.0 0.00 0.00 0.00 96 1018.3
20260506102028 49 266 0.0 0.0 0.00 0.00 0.00 96 1018.3
20260506101553 49 266 0.0 0.0 0.00 0.00 0.00 95 1018.3
20260506101105 49 266 0.0 0.0 0.00 0.00 0.00 95 1018.4
20260506100537 49 266 0.0 0.0 0.00 0.00 0.00 95 1018.4
20260506100101 49 266 0.0 0.0 0.00 0.00 0.00 95 1018.3
20260506095552 49 266 0.0 0.0 0.00 0.00 0.00 94 1018.3
20260506095110 49 266 0.0 1.0 0.00 0.00 0.00 94 1018.3
20260506094536 49 266 0.0 1.0 0.00 0.00 0.00 94 1018.3
20260506094040 49 263 0.0 1.0 0.00 0.00 0.00 94 1018.3
20260506093540 49 263 0.0 1.0 0.00 0.00 0.00 94 1018.2
20260506093046 50 263 0.0 2.0 0.00 0.00 0.00 94 1018.2
20260506092535 50 269 1.0 3.0 0.00 0.00 0.00 94 1018.2
20260506092041 50 271 1.0 3.0 0.00 0.00 0.00 94 1018.1
20260506091543 50 258 2.0 3.0 0.00 0.00 0.00 94 1018.0
20260506091044 50 279 1.0 3.0 0.00 0.00 0.00 94 1018.0
20260506090550 50 262 2.0 3.0 0.00 0.00 0.00 93 1018.1
20260506090106 50 277 2.0 3.0 0.00 0.00 0.00 94 1018.1
20260506085542 50 266 2.0 4.0 0.00 0.00 0.00 94 1018.1
20260506085026 50 299 2.0 5.0 0.00 0.00 0.00 94 1018.1
20260506084535 50 285 3.0 5.0 0.00 0.00 0.00 94 1018.0
20260506084025 50 271 2.0 4.0 0.00 0.00 0.00 94 1018.0
20260506083531 50 281 2.0 4.0 0.00 0.00 0.00 94 1018.0
20260506083036 50 275 2.0 3.0 0.00 0.00 0.00 94 1017.9
20260506082534 50 276 1.0 3.0 0.00 0.00 0.00 94 1017.9
20260506082055 51 275 1.0 5.0 0.00 0.00 0.00 94 1017.9
20260506081535 50 236 1.0 4.0 0.00 0.00 0.00 94 1017.9
20260506081059 51 250 3.0 4.0 0.00 0.00 0.00 94 1017.8
20260506080531 51 245 2.0 4.0 0.00 0.00 0.00 94 1017.7
20260506080109 51 255 2.0 4.0 0.00 0.00 0.00 94 1017.6
20260506073050 51 269 1.0 2.0 0.00 0.00 0.00 93 1017.4
20260506072554 51 266 0.0 3.0 0.00 0.00 0.00 93 1017.2
20260506072055 51 272 1.0 3.0 0.00 0.00 0.00 93 1017.2
20260506071527 51 282 2.0 5.0 0.00 0.00 0.00 92 1017.2
20260506071033 51 274 3.0 5.0 0.00 0.00 0.00 93 1017.2
20260506070534 51 275 3.0 4.0 0.00 0.00 0.00 92 1017.2
20260506062031 52 278 4.0 7.0 0.00 0.00 0.00 92 1017.1
20260506061533 52 242 3.0 7.0 0.00 0.00 0.00 92 1017.3
20260506061039 52 274 4.0 6.0 0.00 0.00 0.00 92 1017.3
20260506060543 52 275 3.0 7.0 0.00 0.00 0.00 92 1017.3
20260506051033 53 310 2.0 6.0 0.00 0.00 0.00 89 1016.7
20260506050533 53 287 4.0 8.0 0.00 0.00 0.00 89 1016.8
20260506045029 53 266 2.0 5.0 0.00 0.00 0.00 88 1016.7
20260506044550 54 277 3.0 5.0 0.00 0.00 0.00 88 1016.6
20260506044035 54 292 2.0 7.0 0.00 0.00 0.00 88 1016.5
20260506043539 54 283 4.0 7.0 0.00 0.00 0.00 88 1016.3
20260506043107 54 283 4.0 6.0 0.00 0.00 0.00 88 1016.3
20260506042556 54 294 3.0 6.0 0.00 0.00 0.00 88 1016.2
20260506042035 54 271 3.0 5.0 0.00 0.00 0.00 87 1016.1
20260506041527 54 288 3.0 4.0 0.00 0.00 0.00 87 1016.1
20260506041100 54 291 2.0 3.0 0.00 0.00 0.00 87 1016.1
20260506040526 54 266 2.0 3.0 0.00 0.00 0.00 86 1015.9
20260506040045 55 248 0.0 2.0 0.00 0.00 0.00 86 1015.8
20260506035546 55 275 1.0 2.0 0.00 0.00 0.00 86 1015.8
20260506035049 55 240 0.0 3.0 0.00 0.00 0.00 85 1015.7
20260506034612 55 284 0.0 4.0 0.00 0.00 0.00 85 1015.6
20260506034028 56 283 2.0 4.0 0.00 0.00 0.00 84 1015.6
20260506033527 56 297 3.0 4.0 0.00 0.00 0.00 84 1015.6
20260506033029 56 274 1.0 4.0 0.00 0.00 0.00 83 1015.6
20260506032534 56 304 2.0 5.0 0.00 0.00 0.00 83 1015.7
20260506032040 57 245 3.0 5.0 0.00 0.00 0.00 82 1015.7
20260506031534 57 287 3.0 7.0 0.00 0.00 0.00 82 1015.6
20260506031059 57 253 3.0 7.0 0.00 0.00 0.00 82 1015.6
20260506030613 57 263 3.0 6.0 0.00 0.00 0.00 81 1015.6
20260506030043 58 247 2.0 6.0 0.00 0.00 0.00 81 1015.7
20260506025548 58 298 2.0 8.0 0.00 0.00 0.00 81 1015.6
20260506025038 58 252 4.0 8.0 0.00 0.00 0.00 80 1015.5
20260506024538 58 300 4.0 8.0 0.00 0.00 0.00 80 1015.5
20260506024042 59 302 5.0 9.0 0.00 0.00 0.00 80 1015.5
20260506023524 59 276 5.0 10.0 0.00 0.00 0.00 80 1015.5
20260506023034 59 269 7.0 10.0 0.00 0.00 0.00 79 1015.5
20260506022530 59 280 5.0 8.0 0.00 0.00 0.00 79 1015.5
20260506022033 60 276 4.0 8.0 0.00 0.00 0.00 79 1015.5
20260506021538 60 237 5.0 9.0 0.00 0.00 0.00 80 1015.5
20260506021044 60 281 6.0 9.0 0.00 0.00 0.00 79 1015.5
20260506020535 60 272 4.0 7.0 0.00 0.00 0.00 79 1015.5
20260506020046 61 310 3.0 8.0 0.00 0.00 0.00 79 1015.5
20260506015529 61 251 4.0 8.0 0.00 0.00 0.00 79 1015.5
20260506015030 61 300 3.0 7.0 0.00 0.00 0.00 79 1015.5
20260506014525 61 301 3.0 9.0 0.00 0.00 0.00 79 1015.6
20260506014029 61 297 5.0 9.0 0.00 0.00 0.00 79 1015.6
20260506013531 61 288 6.0 10.0 0.00 0.00 0.00 79 1015.6
20260506013036 61 247 7.0 12.0 0.00 0.00 0.00 79 1015.6
20260506012537 62 288 6.0 12.0 0.00 0.00 0.00 78 1015.5
20260506012104 62 300 4.0 10.0 0.00 0.00 0.00 78 1015.4
20260506011544 63 274 6.0 10.0 0.00 0.00 0.00 78 1015.4
20260506011047 64 290 4.0 6.0 0.00 0.00 0.00 77 1015.5
20260506010551 64 234 1.0 8.0 0.00 0.00 0.00 77 1015.4
20260506010058 64 271 2.0 8.0 0.00 0.00 0.00 76 1015.4
20260506005547 64 256 3.0 6.0 0.00 0.00 0.00 76 1015.4
20260506005042 64 278 4.0 6.0 0.00 0.00 0.00 76 1015.4
20260506004526 65 290 3.0 5.0 0.00 0.00 0.00 72 1015.4
20260506004028 66 315 2.0 6.0 0.00 0.00 0.00 74 1015.4
20260506003553 65 290 2.0 6.0 0.00 0.00 0.00 74 1015.4
20260506003035 66 53 2.0 6.0 0.00 0.00 0.00 73 1015.5